[[{"header":{"parameterUnit":"m.s-1","parameterCategory":1,"la1":30.2991,"la2":30.254,"lo1":-89.0895,"lo2":-89.0444,"dy":0.0017,"dx":0.0017,"nx":28,"ny":28,"refTime":"2024-05-07T03:00:00:Z","depth":0,"parameterNumber":2,"parameterNumberName":"U-component_of_WINDS"},"data":[0,0,0,0,0,0,0,0,0,0,0,0,0,0,0,0,0,0,0,0,0,0,0,0,0,0,0,0,0,0,0,0,0,0,0,0,0,0,0,0,0,0,0,0,0,0,0,0,0,0,0,0,0,0,0,0,0,0,-1.8896,-1.8897,0,-1.8952,-1.8952,-1.8953,-1.8965,-1.8965,-1.8964,-1.8964,-1.9022,-1.9024,-1.9026,0,0,0,0,0,0,0,0,0,0,0,0,0,-1.8803,-1.8804,-1.8896,-1.8897,-1.8898,-1.8952,-1.8952,-1.8953,-1.8965,-1.8965,-1.8964,-1.8964,-1.9021,-1.9023,-1.9026,0,0,0,0,0,0,0,0,0,0,0,0,0,-1.8849,-1.8805,-1.8896,-1.891,-1.8912,-1.8951,-1.8952,-1.8953,-1.8965,-1.8965,-1.8964,-1.8964,-1.902,-1.9023,-1.9026,-1.9056,0,0,-1.9035,-1.9036,0,0,0,0,0,0,0,0,-1.8847,-1.8853,-1.8907,-1.8909,-1.8911,-1.8951,-1.8941,-1.8988,-1.8966,-1.8945,-1.8964,-1.8963,-1.8999,-1.9003,-1.9015,-1.9058,-1.9061,-1.9035,-1.9037,-1.9038,-1.9039,0,0,0,0,0,0,0,-1.8843,-1.885,-1.8918,-1.8908,-1.8911,-1.8914,-1.892,-1.895,-1.8975,-1.8947,-1.8948,-1.8954,-1.9,-1.9012,-1.9017,-1.9062,-1.9035,-1.9038,-1.9039,-1.904,-1.9133,-1.9134,0,0,0,0,0,0,-1.8838,-1.8848,-1.8916,-1.892,-1.8877,-1.8916,-1.8923,-1.8939,-1.8974,-1.8979,-1.8955,-1.8955,-1.9008,-1.9013,-1.9019,-1.9056,-1.9038,-1.9041,-1.9042,-1.9133,-1.9133,-1.9134,0,0,0,0,0,0,-1.8835,-1.8844,-1.8914,-1.8884,-1.8893,-1.8919,-1.8936,-1.894,-1.8953,-1.898,-1.8985,-1.8963,-1.9007,-1.9015,-1.9047,-1.9058,-1.9042,-1.9045,-1.9132,-1.9133,-1.9134,-1.9131,0,0,0,0,0,0,-1.8833,-1.8843,-1.8854,-1.8884,-1.8895,-1.8941,-1.8937,-1.8942,-1.8958,-1.8958,-1.8989,-1.8994,-1.9008,-1.9042,-1.9049,-1.9062,-1.9047,-1.9131,-1.9132,-1.9133,-1.913,-1.9132,-1.9133,0,0,0,0,0,-1.8829,-1.8851,-1.8854,-1.8862,-1.8909,-1.8941,-1.8947,-1.8963,-1.8958,-1.897,-1.8988,-1.8993,-1.9056,-1.9045,-1.9054,-1.9067,-1.913,-1.9132,-1.9133,-1.9129,-1.9131,-1.9133,0,0,0,0,0,0,-1.8821,-1.8855,-1.8859,-1.8891,-1.8913,-1.8943,-1.8958,-1.8964,-1.8988,-1.8988,-1.9006,-1.9013,-1.9044,-1.9059,-1.9046,-1.9098,-1.9093,-1.9096,-1.9087,-1.9089,-1.9091,-1.9086,-1.9049,0,0,0,0,0,-1.8823,-1.8846,-1.8874,-1.89,-1.8911,-1.8933,-1.8947,-1.8957,-1.8981,-1.899,-1.901,-1.9034,-1.9059,-1.9075,-1.91,-1.9133,-1.914,-1.9146,-1.9148,-1.9149,-1.9151,-1.9171,-1.9174,-1.914,-1.914,-1.914,0,0,-1.8827,-1.8849,-1.8862,-1.8899,-1.8917,-1.8941,-1.894,-1.8965,-1.8983,-1.8994,-1.9025,-1.9041,-1.9069,-1.9101,-1.9117,-1.9115,-1.9163,-1.9151,-1.9152,-1.9154,-1.9173,-1.9176,-1.9179,-1.9141,-1.9141,-1.914,0,0,-1.8847,-1.8865,-1.8889,-1.8907,-1.8935,-1.8949,-1.8955,-1.8984,-1.8995,-1.9027,-1.9036,-1.9058,-1.9101,-1.912,-1.9135,-1.9163,-1.9169,-1.9171,-1.9179,-1.9197,-1.92,-1.9202,-1.9213,-1.9216,-1.9173,-1.9173,-1.9173,0,-1.8849,-1.8884,-1.89,-1.8925,-1.8941,-1.8952,-1.8976,-1.8993,-1.9028,-1.9039,-1.9037,-1.9091,-1.911,-1.9148,-1.9154,-1.9167,-1.9174,-1.9167,-1.9198,-1.9201,-1.9203,-1.9213,-1.9217,-1.9174,-1.9174,-1.9174,-1.9174,0,-1.8885,-1.891,-1.8926,-1.8958,-1.8976,-1.9001,-1.9021,-1.9037,-1.9046,-1.9061,-1.9094,-1.9117,-1.9147,-1.9157,-1.9165,-1.9196,-1.9194,-1.9195,-1.9189,-1.9206,-1.9216,-1.922,-1.9174,-1.9174,-1.9174,-1.9174,0,0,-1.8901,-1.8942,-1.8948,-1.8963,-1.8995,-1.9014,-1.904,-1.9068,-1.9082,-1.9106,-1.9128,-1.9165,-1.9166,-1.9183,-1.9194,-1.9211,-1.9232,-1.921,-1.921,-1.9213,-1.9267,-1.9266,-1.927,-1.9236,-1.9236,-1.9237,-1.9264,0,-1.8924,-1.8969,-1.8984,-1.9021,-1.9045,-1.9056,-1.9078,-1.91,-1.9115,-1.9138,-1.9155,-1.918,-1.918,-1.919,-1.9207,-1.9225,-1.9243,-1.9224,-1.9256,-1.9257,-1.9249,-1.9275,-1.9274,-1.9298,-1.9268,-1.9269,-1.9269,0,-1.8958,-1.8981,-1.9021,-1.905,-1.906,-1.908,-1.9108,-1.9129,-1.9155,-1.9165,-1.9185,-1.9195,-1.9222,-1.9216,-1.9255,-1.9241,-1.9256,-1.9267,-1.9268,-1.9272,-1.9264,-1.9279,-1.9307,-1.931,-1.9276,-1.9275,-1.9275,0,-1.8965,-1.9007,-1.9036,-1.9049,-1.9084,-1.9097,-1.9113,-1.9138,-1.9154,-1.9179,-1.919,-1.9218,-1.9233,-1.9255,-1.9273,-1.9266,-1.931,-1.9305,-1.9319,-1.9318,-1.9327,-1.9326,-1.9358,-1.9337,-1.9337,-1.9337,-1.9337,0,-1.899,-1.9013,-1.904,-1.9058,-1.9085,-1.9103,-1.9129,-1.9146,-1.9168,-1.919,-1.9202,-1.9222,-1.9244,-1.9267,-1.9281,-1.9311,-1.9318,-1.9327,-1.9331,-1.9326,-1.9325,-1.9335,-1.9334,-1.9338,-1.9338,-1.9337,-1.9337,0,-1.9002,-1.9021,-1.9054,-1.9084,-1.9092,-1.9111,-1.9137,-1.9155,-1.9171,-1.9199,-1.9206,-1.9231,-1.9259,-1.9279,-1.9315,-1.9325,-1.9357,-1.936,-1.9348,-1.935,-1.9363,-1.9361,-1.9402,-1.9408,-1.9383,-1.9383,-1.9384,0,-1.9017,-1.9035,-1.9067,-1.9083,-1.9098,-1.9122,-1.9139,-1.9158,-1.9175,-1.9206,-1.9221,-1.925,-1.9274,-1.9318,-1.934,-1.9368,-1.9372,-1.9384,-1.9376,-1.9371,-1.9372,-1.9371,-1.9373,-1.9385,-1.9386,-1.9386,-1.9386,0,-1.904,-1.9049,-1.9072,-1.91,-1.9119,-1.9142,-1.9164,-1.9176,-1.9199,-1.9218,-1.9247,-1.9266,-1.9303,-1.9331,-1.9362,-1.9378,-1.9386,-1.9388,-1.9393,-1.9388,-1.938,-1.9385,-1.9351,-1.9387,-1.9387,-1.9387,-1.9387,-1.9387,-1.9055,-1.9072,-1.9097,-1.9123,-1.9142,-1.9163,-1.9182,-1.92,-1.9224,-1.9255,-1.9265,-1.9295,-1.9321,-1.9362,-1.9379,-1.9403,-1.9402,-1.9409,-1.9411,-1.9412,-1.9412,-1.9377,-1.9409,-1.9409,-1.9409,-1.9409,-1.9409,0,-1.9079,-1.9096,-1.912,-1.9151,-1.9171,-1.9177,-1.9202,-1.9219,-1.9245,-1.9269,-1.9292,-1.9325,-1.9354,-1.9378,-1.9407,-1.9422,-1.9426,-1.9429,-1.9428,-1.9431,-1.9411,-1.9404,-1.9425,-1.9425,-1.9425,-1.9425,-1.9425,-1.9425,-1.9094,-1.9123,-1.9135,-1.9174,-1.9191,-1.9219,-1.9234,-1.9253,-1.9272,-1.9308,-1.9332,-1.9347,-1.9371,-1.9402,-1.9428,-1.9435,-1.9445,-1.9447,-1.9454,-1.9435,-1.9433,-1.9431,-1.9424,-1.9449,-1.9449,-1.9472,-1.9472,-1.9473]},{"header":{"parameterUnit":"m.s-1","parameterCategory":1,"la1":30.2991,"la2":30.254,"lo1":-89.0895,"lo2":-89.0444,"dy":0.0017,"dx":0.0017,"nx":28,"ny":28,"refTime":"2024-05-07T03:00:00:Z","depth":0,"parameterNumber":3,"parameterNumberName":"V-component_of_WINDS"},"data":[0,0,0,0,0,0,0,0,0,0,0,0,0,0,0,0,0,0,0,0,0,0,0,0,0,0,0,0,0,0,0,0,0,0,0,0,0,0,0,0,0,0,0,0,0,0,0,0,0,0,0,0,0,0,0,0,0,0,6.933,6.933,0,6.939,6.939,6.9391,6.9326,6.9324,6.9321,6.9319,6.9376,6.9379,6.9383,0,0,0,0,0,0,0,0,0,0,0,0,0,6.9154,6.9157,6.933,6.933,6.9331,6.939,6.939,6.9391,6.9326,6.9323,6.932,6.9318,6.9374,6.9379,6.9384,0,0,0,0,0,0,0,0,0,0,0,0,0,6.9224,6.9159,6.9329,6.9306,6.9304,6.9389,6.939,6.9391,6.9327,6.9323,6.932,6.9316,6.9373,6.9379,6.9384,6.9494,0,0,6.9402,6.9404,0,0,0,0,0,0,0,0,6.922,6.923,6.9309,6.9308,6.9306,6.9347,6.9349,6.9426,6.9328,6.9318,6.9319,6.9314,6.9369,6.9375,6.9394,6.9497,6.9499,6.9402,6.9406,6.9408,6.941,0,0,0,0,0,0,0,6.9215,6.9227,6.9353,6.931,6.9308,6.9291,6.9297,6.9363,6.9363,6.9319,6.9314,6.9323,6.9367,6.9389,6.9395,6.95,6.9402,6.9407,6.9411,6.9413,6.9695,6.9699,0,0,0,0,0,0,6.9213,6.9224,6.9351,6.9355,6.9253,6.9297,6.9303,6.9337,6.9363,6.9363,6.9326,6.9319,6.9381,6.9388,6.9396,6.9526,6.9408,6.9413,6.9417,6.9691,6.9696,6.97,0,0,0,0,0,0,6.921,6.9225,6.9349,6.9288,6.9302,6.9304,6.9343,6.934,6.9362,6.9368,6.9367,6.9348,6.9378,6.9388,6.947,6.9527,6.9416,6.9421,6.9686,6.9692,6.9698,6.9787,0,0,0,0,0,0,6.9205,6.9225,6.9267,6.929,6.9306,6.9423,6.9346,6.9344,6.9372,6.9365,6.9388,6.9389,6.9376,6.9462,6.9476,6.9533,6.9426,6.9681,6.9689,6.9696,6.9779,6.9795,6.9809,0,0,0,0,0,6.9199,6.9289,6.927,6.9286,6.936,6.9427,6.9436,6.9421,6.9377,6.9419,6.9423,6.9388,6.9519,6.9471,6.9486,6.9546,6.9677,6.9686,6.9695,6.9772,6.9792,6.9809,0,0,0,0,0,0,6.9272,6.9292,6.927,6.9371,6.9398,6.9416,6.9469,6.9443,6.9481,6.9472,6.945,6.9456,6.9543,6.9552,6.9499,6.9653,6.9591,6.9603,6.9644,6.9663,6.9678,6.9673,6.9431,0,0,0,0,0,6.93,6.9354,6.9368,6.9455,6.947,6.9467,6.9496,6.9482,6.9508,6.9519,6.9529,6.9554,6.9601,6.9632,6.9676,6.978,6.9783,6.9828,6.9843,6.9856,6.9867,6.9921,6.9941,6.973,6.973,6.973,0,0,6.9358,6.9375,6.941,6.947,6.9489,6.9544,6.9477,6.9538,6.9579,6.9527,6.9606,6.9614,6.9641,6.9735,6.9776,6.9745,6.9926,6.9867,6.9877,6.9881,6.9933,6.9953,6.9971,6.9736,6.9735,6.9734,0,0,6.9491,6.9511,6.9585,6.9606,6.9637,6.9634,6.9652,6.9675,6.9679,6.9757,6.972,6.9767,6.9848,6.9869,6.989,7.0032,7.0001,7.0047,7.0126,7.018,7.0196,7.0211,7.0261,7.0279,7.0058,7.0058,7.0058,0,6.9559,6.9642,6.9626,6.9691,6.9717,6.9675,6.975,6.977,6.9813,6.9832,6.9797,6.9898,6.9913,7.0011,7.0046,7.0064,7.0083,7.0044,7.0195,7.021,7.0223,7.027,7.0289,7.0063,7.0063,7.0062,7.0062,0,6.9723,6.9781,6.9837,6.9882,6.9915,6.9984,6.9977,7.0012,6.9995,6.9996,7.0076,7.0093,7.0139,7.0161,7.0145,7.0257,7.0236,7.0199,7.0136,7.0249,7.0293,7.0311,7.0071,7.0069,7.0068,7.0066,0,0,6.9903,6.9939,6.9959,6.9979,7.001,7.0054,7.012,7.0167,7.0197,7.0228,7.0282,7.0352,7.0318,7.0342,7.0328,7.0375,7.0485,7.0332,7.0332,7.0359,7.0608,7.0636,7.0657,7.0465,7.0469,7.0471,7.0605,0,7.0037,7.0155,7.0142,7.0253,7.0306,7.0267,7.0325,7.0349,7.0352,7.0396,7.0398,7.0448,7.0399,7.0414,7.0459,7.0463,7.0535,7.0453,7.0514,7.0516,7.0508,7.068,7.0709,7.0835,7.0623,7.0626,7.0628,0,7.0209,7.0248,7.0364,7.0387,7.0409,7.0461,7.0503,7.0546,7.0572,7.0571,7.0598,7.0576,7.0641,7.0578,7.0666,7.0611,7.0635,7.0641,7.0645,7.0649,7.0578,7.0688,7.0875,7.0894,7.0655,7.0653,7.0651,0,7.0328,7.0409,7.0489,7.0507,7.0536,7.0573,7.0587,7.061,7.0638,7.0674,7.0692,7.0735,7.0758,7.0791,7.078,7.0735,7.0871,7.0806,7.087,7.0871,7.09,7.0898,7.1092,7.0917,7.0917,7.0916,7.0916,0,7.0478,7.0551,7.0543,7.0593,7.0672,7.0657,7.0736,7.0744,7.0765,7.0814,7.0782,7.0829,7.0812,7.0857,7.0849,7.0923,7.0934,7.0933,7.093,7.0936,7.0936,7.0951,7.0941,7.0921,7.092,7.0919,7.0918,0,7.0625,7.0623,7.0707,7.0728,7.0735,7.0793,7.0809,7.0855,7.0855,7.0918,7.0932,7.0932,7.0983,7.0976,7.1032,7.1027,7.1119,7.1106,7.1111,7.1108,7.1172,7.1166,7.1382,7.1409,7.1217,7.1219,7.122,0,7.072,7.0776,7.0803,7.0834,7.0851,7.0901,7.0931,7.0917,7.0949,7.0983,7.1025,7.1073,7.1112,7.1195,7.12,7.1243,7.1229,7.1302,7.1235,7.1239,7.1229,7.1226,7.1231,7.1315,7.1317,7.1319,7.1321,0,7.089,7.0887,7.0931,7.0976,7.1013,7.1047,7.1077,7.1104,7.1093,7.113,7.1183,7.1213,7.1272,7.132,7.1361,7.1372,7.1345,7.1342,7.1359,7.1365,7.1365,7.1365,7.1146,7.1337,7.1335,7.1334,7.1333,7.1332,7.1014,7.1061,7.1088,7.1138,7.116,7.1189,7.1233,7.124,7.1284,7.1332,7.1321,7.138,7.1404,7.1456,7.1472,7.1518,7.1491,7.1515,7.1521,7.1528,7.1535,7.1359,7.1525,7.1525,7.1524,7.1524,7.1523,0,7.1182,7.1197,7.1244,7.1288,7.1328,7.13,7.1332,7.1367,7.142,7.1446,7.1484,7.1545,7.1592,7.16,7.1644,7.1679,7.1667,7.1691,7.1688,7.1691,7.1557,7.1538,7.17,7.17,7.17,7.17,7.17,7.1699,7.1274,7.1352,7.1351,7.144,7.1454,7.1513,7.1534,7.156,7.1581,7.165,7.1689,7.1695,7.1713,7.1759,7.18,7.1801,7.1818,7.1847,7.1843,7.1718,7.17,7.1683,7.1665,7.1851,7.1851,7.1973,7.1974,7.1975]}]]